EW1895 Weather Reports


Display with metric or nautical units.
time (UTC)temp
F
wind
direction
speed
MPH
gust
MPH
rain 1hr
in
rain 24hr
in
rain mn
in
humidity
%
barometer
mb
20260905130027 72 151 0.0 0.0 0.00 0.00 0.00 97 1011.9
20260905124527 72 151 0.0 0.0 0.00 0.00 0.00 97 1011.6
20260905123021 71 151 0.0 0.0 0.00 0.00 0.00 97 1011.7
20260905121520 70 151 0.0 0.0 0.00 0.00 0.00 97 1011.8
20260905120017 69 151 0.0 0.0 0.00 0.00 0.00 96 1012.0
20260905114524 68 151 0.0 0.0 0.00 0.00 0.00 96 1011.9
20260905113023 68 151 0.0 0.0 0.00 0.00 0.00 96 1011.8
20260905111512 68 151 0.0 0.0 0.00 0.00 0.00 96 1011.6
20260905110012 68 151 0.0 0.0 0.00 0.00 0.00 96 1011.4
20260905104518 68 151 0.0 0.0 0.00 0.00 0.00 96 1011.3
20260905103019 69 151 0.0 0.0 0.00 0.00 0.00 96 1011.1
20260905101508 69 151 0.0 0.0 0.00 0.00 0.00 96 1011.0
20260905100017 69 151 0.0 0.0 0.00 0.00 0.00 96 1010.8
20260905094511 69 151 0.0 0.0 0.00 0.00 0.00 96 1010.8
20260905093006 69 151 0.0 0.0 0.00 0.00 0.00 96 1010.6
20260905091505 69 151 0.0 0.0 0.00 0.00 0.00 96 1010.7
20260905090004 69 151 0.0 0.0 0.00 0.00 0.00 96 1010.7
20260905084501 69 151 0.0 0.0 0.00 0.00 0.00 96 1010.6
20260905083100 69 151 0.0 0.0 0.00 0.00 0.00 96 1010.7
20260905081605 69 151 0.0 0.0 0.00 0.00 0.00 96 1010.8
20260905074558 69 151 0.0 0.0 0.00 0.00 0.00 96 1011.0
20260905073057 69 151 0.0 0.0 0.00 0.00 0.00 96 1011.2
20260905071557 69 151 0.0 0.0 0.00 0.00 0.00 96 1011.3
20260905070059 70 151 0.0 0.0 0.00 0.00 0.00 96 1011.4
20260905064600 70 151 0.0 0.0 0.00 0.00 0.00 96 1011.4
20260905063101 69 151 0.0 0.0 0.00 0.00 0.00 96 1011.4
20260905061609 69 151 0.0 0.0 0.00 0.00 0.00 96 1011.8
20260905060051 70 151 0.0 0.0 0.00 0.00 0.00 96 1012.0
20260905054549 69 151 0.0 0.0 0.00 0.00 0.00 96 1012.2
20260905053053 69 151 0.0 0.0 0.00 0.00 0.00 96 1012.7
20260905051546 70 151 0.0 0.0 0.00 0.00 0.00 96 1012.9
20260905050043 70 151 0.0 0.0 0.00 0.00 0.00 96 1013.0
20260905044541 70 151 0.0 0.0 0.00 0.00 0.00 96 1013.3
20260905043040 70 151 0.0 0.0 0.00 0.00 0.00 96 1013.5
20260905041537 70 151 0.0 0.0 0.00 0.00 0.00 96 1013.6
20260905040036 70 151 0.0 0.0 0.00 0.00 0.00 96 1013.6
20260905034535 70 151 0.0 0.0 0.00 0.00 0.00 96 1013.6
20260905033036 70 151 0.0 0.0 0.00 0.00 0.00 96 1013.6
20260905031531 70 151 0.0 0.0 0.00 0.00 0.00 96 1013.6
20260905030034 70 151 0.0 0.0 0.00 0.00 0.00 96 1013.6
20260905023012 70 151 0.0 0.0 0.00 0.00 0.00 96 1013.6
20260905021510 70 151 0.0 0.0 0.00 0.00 0.00 95 1013.6
20260905020020 70 151 0.0 0.0 0.00 0.00 0.00 95 1013.6
20260905014508 69 151 0.0 0.0 0.00 0.00 0.00 95 1013.1
20260905013005 70 151 0.0 0.0 0.00 0.00 0.00 95 1012.8
20260905011505 70 151 0.0 0.0 0.00 0.00 0.00 95 1012.5
20260905010006 70 151 0.0 0.0 0.00 0.00 0.00 95 1012.5
20260905004504 70 151 0.0 0.0 0.00 0.00 0.00 95 1012.5
20260905003101 70 151 0.0 0.0 0.00 0.00 0.00 95 1012.4
20260905001557 71 151 0.0 0.0 0.00 0.00 0.00 95 1011.7
20260904210023 81 337 9.0 20.0 0.00 0.00 0.00 75 1012.9
20260904204508 97 286 2.0 9.0 0.00 0.00 0.00 58 1012.2
20260904201507 99 241 0.0 1.0 0.00 0.00 0.00 50 1011.1
20260904200005 99 123 0.0 1.0 0.00 0.00 0.00 50 1011.3
20260904194502 100 252 0.0 0.0 0.00 0.00 0.00 50 1011.9
20260904191556 101 202 0.0 0.0 0.00 0.00 0.00 45 1012.3
20260904190055 100 202 0.0 0.0 0.00 0.00 0.00 48 1012.3
20260904184549 100 281 0.0 0.0 0.00 0.00 0.00 49 1012.6
20260904181549 99 340 0.0 1.0 0.00 0.00 0.00 50 1013.2
20260904180040 98 322 0.0 0.0 0.00 0.00 0.00 52 1013.5
20260904174542 97 332 0.0 1.0 0.00 0.00 0.00 53 1013.6
20260904171632 97 161 0.0 1.0 0.00 0.00 0.00 51 1013.9
20260904170031 98 232 0.0 0.0 0.00 0.00 0.00 52 1013.8
20260904164528 98 232 0.0 1.0 0.00 0.00 0.00 53 1013.9
20260904161532 95 246 0.0 1.0 0.00 0.00 0.00 56 1014.1
20260904160020 96 159 0.0 2.0 0.00 0.00 0.00 55 1014.3
20260904154516 96 324 0.0 3.0 0.00 0.00 0.00 57 1014.5
20260904151510 94 305 0.0 0.0 0.00 0.00 0.00 59 1014.4
20260904150016 93 305 0.0 0.0 0.00 0.00 0.00 62 1014.5
20260904144501 92 305 0.0 0.0 0.00 0.00 0.00 65 1014.4
20260904141558 88 305 0.0 0.0 0.00 0.00 0.00 72 1014.3
20260904140053 86 305 0.0 0.0 0.00 0.00 0.00 75 1014.2
20260904134549 84 305 0.0 0.0 0.00 0.00 0.00 80 1014.4
20260904131554 78 305 0.0 0.0 0.00 0.00 0.00 89 1014.3